JY1SAT (JO-97)

Last updated on Mon Sep 15 2025 00:03:09 GMT+0000 (Coordinated Universal Time)

1 43803U 18099AX 25256.91385535 .00010318 00000+0 44155-3 0 9998 2 43803 97.4563 315.2127 0008044 158.7035 201.4538 15.22973925371425
UTC large
Height (km)
Speed (km/s)
/
Latitude / Longitude
Inclination (degrees)
Orbital Period (minutes)
Azimuth
Elevation
Range (km)
Doppler Factor

Next 0 passes for location: London (51.5072 / 0.1276)

Sorry there are no passes over London.